STARLINK-32855, 62813

Orbit data source: Space-Track

STARLINK-32855, 62813 is a payload satellite owned by SpaceX/Seattle (US) in LEO that was launched on Fri, 24 Jan 2025 UTC via an FALCON 9 launch vehicle from the Air Force Western Test Range (AFWTR). Payload-class satellites include a variety of spacecraft equipped with specific instruments for various scientific and technological missions. These include communications satellites like Starlink; space stations such as the ISS; scientific satellites like the Hubble; Earth observation satellites from companies like Planet Labs, Umbra, and HawkEye 360; GPS; miniature CubeSats for education and research; and military/defense satellites.

Loading next visibility...
Identifier
62813, 2025-018H
Orbit
LEO
Country
Flag of USUS
Related business
Manufacturer
SpaceX/Seattle
Mission
Operational Commercial Communications
Bus & Motor
STARLINK V2M, Unknown motor
Mass
730 kg wet, ~700 kg dry
Launch date (UTC)
2025-01-24 (1 year ago)
Launch vehicle
FALCON 9
Launch site
Air Force Western Test Range (AFWTR)
Object type
Payload
Rocket body
Debris
Shape & HBR
Box + 2 Pan, 17.7 m
Radar Cross Section
33.884 m², Large (>1 m²)

Expand to show TLE details & history
Last TLE update: 22 hours ago

TLE from 22 hours ago
0 STARLINK-32855
1 62813U 25018H   26033.49254061  .00014294  00000-0  49377-3 0  9994
2 62813  53.1581 112.7944 0001202  87.2932 272.8207 15.30202241 57784
Epoch: 2026-02-02T11:49Z
TLE epoch observation values (Epoch: 2026-02-02T11:49:15.508Z)
Latitude
0.00002°
Longitude
162.79275°
Altitude
476.067 km
Speed
7.629 km/s
True Right ascension
07h 31m 10s
True Declination
0° 00' 00"
Sunlit
Object was in full shadow at epoch
Visualization orbit readout
Latitude
Unknown
Longitude
Unknown
Altitude
Unknown
Speed
Unknown
Apparent Right ascension
Unknown
Apparent Declination
Unknown
Sunlit
N/A
Visualization observer readout
Local Sidereal Time
12:04:50
Azimuth
Unknown
Elevation
Unknown
Doppler factor
Unknown
Orbital elements
Apogee altitude
476.289 km
Perigee altitude
474.641 km
Semi-major axis
6,853.602 km
Eccentricity
0.00012
Inclination
53.1581°
RAAN
112.7944°
Arg. of periapsis
87.2932°
True anomaly
272.80694°
Mean anomaly
272.8207°
Eccentric anomaly
272.81382°
Mean motion
3.82529 °/min
Orbital period
94.11 mins
BSTAR
0.00049377
Loading maneuver chart data...
Computing Atmospheric mass density...
Loading historical data...
Loading historical data...
Loading historical data...
Loading historical data...
Loading historical data...
Loading historical data...
Loading historical data...

Documentation

Showing up to 5 results
|